This demonstration page uses our WeatherBlox Daily Observations layout. Learn more.

Left ArrowRight Arrow

39.51506, -84.39828

Hourly Observations for May 24, 2022

Temp ( °F °C ) Dew Point ( °F °C ) Humidity (%) Winds ( mph kmh ) Pressure ( in mb ) Visibility ( mi km ) Precip ( " mm )
12:15 am 00:15 Clear 54 12 N/A N/A Calm 30.21 1023 10 16 0.00 0.00
12:35 am 00:35 Partly Cloudy 52 11 N/A N/A NW 5 7 30.21 1023 7 11 0.00 0.00
12:55 am 00:55 Partly Cloudy 54 12 N/A N/A N 5 7 30.19 1022 10 16 0.00 0.00
1:15 am 01:15 Clear 54 12 N/A N/A NE 7 11 30.18 1022 10 16 0.00 0.00
1:35 am 01:35 Clear 54 12 54 12 100 100 NE 6 9 30.18 1022 10 16 0.00 0.00
1:55 am 01:55 Clear 54 12 52 11 94 94 NNE 6 9 30.17 1022 10 16 0.00 0.00
2:15 am 02:15 Clear 53 11.8 50 10 89 89 N 7 11 30.17 1022 10 16 0.00 0.00
2:35 am 02:35 Clear 52 11.1 50 9.8 92 92 N 7 11 30.17 1022 10 16 0.00 0.00
2:55 am 02:55 Clear 52 11 49 9.5 91 91 N 6 9 30.17 1022 10 16 0.00 0.00
3:15 am 03:15 Clear 51 10.5 49 9.4 93 93 N 7 11 30.18 1022 10 16 0.00 0.00
3:35 am 03:35 Clear 51 10.4 48 9.1 92 92 N 6 9 30.17 1022 10 16 0.00 0.00
3:55 am 03:55 Partly Cloudy 51 10.3 48 8.9 91 91 N 7 11 30.17 1022 10 16 0.00 0.00
4:15 am 04:15 Cloudy 51 10.8 49 9.2 90 90 N 5 7 30.18 1022 10 16 0.00 0.00
4:35 am 04:35 Cloudy 52 11.1 48 8.8 86 86 N 6 9 30.19 1022 10 16 0.00 0.00
4:55 am 04:55 Cloudy 52 11.1 47 8.6 85 85 N 6 9 30.19 1022 10 16 0.00 0.00
5:15 am 05:15 Cloudy 52 11.1 47 8.3 83 83 N 6 9 30.20 1023 10 16 0.00 0.00
5:35 am 05:35 Cloudy 52 11 47 8.1 82 82 N 8 13 30.19 1022 10 16 0.00 0.00
5:55 am 05:55 Mostly Cloudy 51 10.5 46 7.8 84 84 N 6 9 30.20 1023 10 16 0.00 0.00
6:15 am 06:15 Partly Cloudy 50 9.9 46 7.6 86 86 N 7 11 30.20 1023 10 16 0.00 0.00
6:35 am 06:35 Sunny 49 9.7 46 7.7 87 87 N 6 9 30.19 1022 10 16 0.00 0.00
6:55 am 06:55 Sunny 50 9.8 46 7.6 86 86 N 7 11 30.19 1022 10 16 0.00 0.00
7:15 am 07:15 Sunny 51 10.3 46 7.5 83 83 N 7 11 30.20 1023 10 16 0.00 0.00
7:35 am 07:35 Sunny 52 11 45 7.4 79 79 N 8 13 30.21 1023 10 16 0.00 0.00
7:55 am 07:55 Sunny 53 11.7 45 7.2 74 74 N 7 11 30.20 1023 10 16 0.00 0.00
8:15 am 08:15 Sunny 54 12.4 45 7.1 70 70 N 8 13 30.20 1023 10 16 0.00 0.00
8:35 am 08:35 Sunny 55 13 44 6.9 67 67 NE 9 15 30.21 1023 10 16 0.00 0.00
8:55 am 08:55 Sunny 57 13.8 45 7.3 65 65 NE 8 13 30.21 1023 10 16 0.00 0.00
9:15 am 09:15 Sunny 58 14.6 46 7.8 64 64 NNE 6 9 30.21 1023 10 16 0.00 0.00
9:35 am 09:35 Sunny 59 15 45 7.4 61 61 NE 5 7 30.21 1023 10 16 0.00 0.00
9:55 am 09:55 Sunny 60 15.7 46 8 60 60 NNE 8 13 30.20 1023 10 16 0.00 0.00
10:15 am 10:15 Sunny 62 16.6 48 8.7 60 60 E 6 9 30.19 1022 10 16 0.00 0.00
10:35 am 10:35 Sunny 63 17.3 48 8.8 58 58 NE 9 15 30.19 1022 10 16 0.00 0.00
10:55 am 10:55 Sunny 65 18.1 49 9.3 57 57 NE 12 19 30.19 1022 10 16 0.00 0.00
11:15 am 11:15 Sunny 66 18.8 49 9.6 55 55 ENE 7 11 30.19 1022 10 16 0.00 0.00
11:35 am 11:35 Sunny 67 19.2 50 9.8 55 55 ENE 7 11 30.19 1022 10 16 0.00 0.00
11:55 am 11:55 Sunny 67 19.4 50 9.9 54 54 ENE 6 9 30.19 1022 10 16 0.00 0.00
12:15 pm 12:15 Sunny 68 20 51 10.4 54 54 ENE 8 13 30.17 1022 10 16 0.00 0.00
12:35 pm 12:35 Sunny 69 20.4 52 11.1 55 55 NE 8 13 30.17 1022 10 16 0.00 0.00
12:55 pm 12:55 Sunny 70 20.9 52 11.3 54 54 NE 9 15 30.16 1021 10 16 0.00 0.00
1:15 pm 13:15 Sunny 70 20.9 51 10.3 51 51 E 6 9 30.16 1021 10 16 0.00 0.00
1:35 pm 13:35 Sunny 70 21.3 53 11.4 53 53 ENE 9 15 30.15 1021 10 16 0.00 0.00
1:55 pm 13:55 Sunny 71 21.5 51 10.5 50 50 NE 8 13 30.15 1021 10 16 0.00 0.00
2:15 pm 14:15 Sunny 71 21.9 52 10.9 50 50 ENE 9 15 30.14 1021 10 16 0.00 0.00
2:35 pm 14:35 Sunny 72 22.2 53 11.9 52 52 N 9 15 30.14 1021 10 16 0.00 0.00
2:55 pm 14:55 Sunny 72 22.3 52 11.3 50 50 NE 8 13 30.13 1020 10 16 0.00 0.00
3:15 pm 15:15 Sunny 73 22.9 53 11.5 49 49 E 8 13 30.12 1020 10 16 0.00 0.00
3:35 pm 15:35 Sunny 73 22.9 52 11.3 48 48 ENE 8 13 30.12 1020 10 16 0.00 0.00
3:55 pm 15:55 Sunny 74 23.1 53 11.6 48 48 E 6 9 30.12 1020 10 16 0.00 0.00
4:15 pm 16:15 Sunny 74 23.4 53 11.8 48 48 ESE 7 11 30.12 1020 10 16 0.00 0.00
4:35 pm 16:35 Sunny 74 23.5 53 11.8 48 48 E 8 13 30.12 1020 10 16 0.00 0.00
4:55 pm 16:55 Sunny 74 23.5 53 11.4 47 47 ENE 9 15 30.11 1020 10 16 0.00 0.00
5:15 pm 17:15 Sunny 74 23.4 53 11.4 47 47 ENE 6 9 30.11 1020 10 16 0.00 0.00
5:35 pm 17:35 Sunny 74 23.4 52 11.1 46 46 NE 10 17 30.10 1019 10 16 0.00 0.00
5:55 pm 17:55 Sunny 75 23.9 54 12.2 48 48 E 10 17 30.11 1019 10 16 0.00 0.00
6:15 pm 18:15 Sunny 75 23.9 53 11.9 47 47 E 9 15 30.11 1019 10 16 0.00 0.00
6:35 pm 18:35 Sunny 74 23.6 53 11.8 48 48 E 9 15 30.09 1019 10 16 0.00 0.00
6:55 pm 18:55 Sunny 74 23.2 53 11.9 49 49 E 12 19 30.09 1019 10 16 0.00 0.00
7:15 pm 19:15 Sunny 74 23.2 54 12.2 50 50 ENE 9 15 30.09 1019 10 16 0.00 0.00
7:35 pm 19:35 Sunny 73 22.9 54 12.2 51 51 ENE 12 19 30.10 1019 10 16 0.00 0.00
7:55 pm 19:55 Sunny 73 22.7 55 12.6 53 53 ENE 9 15 30.09 1019 10 16 0.00 0.00
8:15 pm 20:15 Sunny 72 22.4 55 12.8 55 55 ENE 12 19 30.09 1019 10 16 0.00 0.00
8:35 pm 20:35 Sunny 72 22 55 12.8 56 56 E 8 13 30.09 1019 10 16 0.00 0.00
8:55 pm 20:55 Clear 70 20.9 56 13.6 63 63 E 6 9 30.08 1019 10 16 0.00 0.00
9:15 pm 21:15 Clear 69 20.4 57 13.8 66 66 E 7 11 30.09 1019 10 16 0.00 0.00
9:35 pm 21:35 Clear 69 20.3 57 13.9 67 67 E 7 11 30.10 1019 7 11 0.00 0.00
9:55 pm 21:55 Clear 68 19.9 58 14.4 71 71 E 6 9 30.10 1019 7 11 0.00 0.00
10:15 pm 22:15 Clear 67 19.7 58 14.7 73 73 E 6 9 30.12 1020 10 16 0.00 0.00
10:35 pm 22:35 Clear 68 20.1 59 14.9 72 72 ESE 6 9 30.11 1020 10 16 0.00 0.00
10:55 pm 22:55 Clear 68 19.8 60 15.3 75 75 SE 7 11 30.13 1020 10 16 0.00 0.00
11:15 pm 23:15 Clear 67 19.5 60 15.7 79 79 ESE 5 7 30.14 1021 10 16 0.00 0.00
11:35 pm 23:35 Clear 67 19.3 60 15.7 80 80 SE 7 11 30.14 1021 10 16 0.00 0.00
11:55 pm 23:55 Clear 66 18.9 60 15.7 82 82 SE 6 9 30.15 1021 10 16 0.00 0.00

Powered by AerisWeather